Tiempo cada hora Abel Tasman National Park

Hoy, 21 Octubre, Miércoles

Tiempo Temperatura Precipitaciones Viento Presión Humedad
00:00 +8°C° 0 mm 2 mps 732 mmHg 78%
01:00 +8°C° 0 mm 2 mps 732 mmHg 78%
02:00 +7°C° 0 mm 2 mps 732 mmHg 79%
03:00 +7°C° 0 mm 2 mps 732 mmHg 79%
04:00 +7°C° 0 mm 2 mps 732 mmHg 80%
05:00 +7°C° 0 mm 2 mps 732 mmHg 81%
06:00 +7°C° 0 mm 2 mps 732 mmHg 82%
07:00 +10°C° 0 mm 1 mps 732 mmHg 75%
08:00 +12°C° 0 mm 1 mps 733 mmHg 68%
09:00 +14°C° 0 mm 1 mps 733 mmHg 60%
10:00 +15°C° 0 mm 1 mps 733 mmHg 58%
11:00 +16°C° 0 mm 2 mps 733 mmHg 57%
12:00 +17°C° 0 mm 3 mps 733 mmHg 55%
13:00 +17°C° 0 mm 3 mps 732 mmHg 53%
14:00 +17°C° 0 mm 3 mps 732 mmHg 52%
15:00 +17°C° 0 mm 4 mps 732 mmHg 50%
16:00 +16°C° 0 mm 3 mps 732 mmHg 56%
17:00 +14°C° 0 mm 3 mps 732 mmHg 62%
18:00 +14°C° 0 mm 2 mps 732 mmHg 68%
19:00 +13°C° 0 mm 2 mps 732 mmHg 70%
20:00 +10°C° 0 mm 2 mps 732 mmHg 73%
21:00 +8°C° 0 mm 2 mps 733 mmHg 75%
22:00 +8°C° 0 mm 2 mps 733 mmHg 71%
23:00 +8°C° 0 mm 2 mps 733 mmHg 66%

Mañana, 22 Octubre, Jueves

Tiempo Temperatura Precipitaciones Viento Presión Humedad
00:00 +7°C° 0 mm 2 mps 733 mmHg 61%
01:00 +7°C° 0 mm 2 mps 733 mmHg 59%
02:00 +7°C° 0 mm 2 mps 733 mmHg 57%
03:00 +6°C° 0 mm 2 mps 733 mmHg 54%
04:00 +6°C° 0 mm 2 mps 733 mmHg 53%
05:00 +6°C° 0 mm 2 mps 733 mmHg 52%
06:00 +6°C° 0 mm 2 mps 733 mmHg 51%
07:00 +9°C° 0 mm 2 mps 734 mmHg 47%
08:00 +12°C° 0 mm 2 mps 734 mmHg 44%
09:00 +15°C° 0 mm 1 mps 734 mmHg 40%
10:00 +15°C° 0 mm 1 mps 734 mmHg 41%
11:00 +16°C° 0 mm 2 mps 734 mmHg 42%
12:00 +17°C° 0 mm 2 mps 734 mmHg 43%
13:00 +17°C° 0 mm 2 mps 734 mmHg 45%
14:00 +17°C° 0 mm 2 mps 734 mmHg 47%
15:00 +17°C° 0 mm 2 mps 733 mmHg 49%
16:00 +16°C° 0 mm 2 mps 733 mmHg 55%
17:00 +15°C° 0 mm 2 mps 733 mmHg 60%
18:00 +14°C° 0 mm 1 mps 733 mmHg 66%
19:00 +12°C° 0 mm 1 mps 734 mmHg 70%
20:00 +10°C° 0 mm 2 mps 734 mmHg 73%
21:00 +8°C° 0 mm 2 mps 735 mmHg 77%
22:00 +8°C° 0 mm 2 mps 735 mmHg 72%
23:00 +8°C° 0 mm 2 mps 735 mmHg 68%

Pasado mañana, 23 Octubre, Viernes

Tiempo Temperatura Precipitaciones Viento Presión Humedad
00:00 +9°C° 0 mm 1 mps 735 mmHg 63%
01:00 +9°C° 0 mm 1 mps 734 mmHg 60%
02:00 +8°C° 0 mm 1 mps 734 mmHg 57%
03:00 +8°C° 0 mm 1 mps 734 mmHg 54%
04:00 +8°C° 0 mm 1 mps 734 mmHg 53%
05:00 +8°C° 0 mm 1 mps 734 mmHg 52%
06:00 +8°C° 0 mm 1 mps 735 mmHg 51%
07:00 +11°C° 0 mm 1 mps 735 mmHg 47%
08:00 +14°C° 0 mm 1 mps 735 mmHg 42%
09:00 +16°C° 0 mm 1 mps 735 mmHg 38%
10:00 +18°C° 0 mm 1 mps 735 mmHg 40%
11:00 +17°C° 0 mm 2 mps 735 mmHg 42%
12:00 +18°C° 0 mm 2 mps 735 mmHg 44%
13:00 +18°C° 0 mm 2 mps 734 mmHg 46%
14:00 +18°C° 0 mm 3 mps 734 mmHg 48%
15:00 +18°C° 0 mm 3 mps 734 mmHg 50%
16:00 +17°C° 0 mm 3 mps 734 mmHg 56%
17:00 +16°C° 0 mm 3 mps 734 mmHg 63%
18:00 +15°C° 0 mm 2 mps 734 mmHg 69%
19:00 +14°C° 0 mm 2 mps 735 mmHg 75%
20:00 +12°C° 0 mm 2 mps 735 mmHg 80%
21:00 +10°C° 0 mm 2 mps 735 mmHg 86%
22:00 +10°C° 0 mm 2 mps 735 mmHg 84%
23:00 +9°C° 0 mm 2 mps 735 mmHg 83%

24 Octubre, Sábado

Tiempo Temperatura Precipitaciones Viento Presión Humedad
00:00 +9°C° 0 mm 2 mps 735 mmHg 81%
01:00 +9°C° 0 mm 2 mps 735 mmHg 79%
02:00 +10°C° 0 mm 1 mps 735 mmHg 78%
03:00 +10°C° 0 mm 1 mps 735 mmHg 76%
04:00 +10°C° 0 mm 1 mps 735 mmHg 75%
05:00 +10°C° 0 mm 1 mps 735 mmHg 74%
06:00 +10°C° 0 mm 1 mps 735 mmHg 73%
07:00 +12°C° 0 mm 1 mps 735 mmHg 66%
08:00 +15°C° 0 mm 1 mps 735 mmHg 58%
09:00 +18°C° 0 mm 1 mps 735 mmHg 51%
10:00 +18°C° 0 mm 2 mps 735 mmHg 51%
11:00 +18°C° 0 mm 3 mps 735 mmHg 51%
12:00 +19°C° 0 mm 4 mps 735 mmHg 51%
13:00 +19°C° 0 mm 5 mps 735 mmHg 53%
14:00 +20°C° 0 mm 5 mps 735 mmHg 54%
15:00 +20°C° 0 mm 6 mps 735 mmHg 55%
16:00 +19°C° 0 mm 5 mps 734 mmHg 61%
17:00 +17°C° 0 mm 5 mps 734 mmHg 67%
18:00 +16°C° 0 mm 5 mps 734 mmHg 73%
19:00 +14°C° 0 mm 5 mps 734 mmHg 79%
20:00 +12°C° 0 mm 4 mps 734 mmHg 84%
21:00 +11°C° 0 mm 4 mps 734 mmHg 90%
22:00 +10°C° 0 mm 4 mps 734 mmHg 89%
23:00 +10°C° 0 mm 4 mps 734 mmHg 87%

25 Octubre, Domingo

Tiempo Temperatura Precipitaciones Viento Presión Humedad
00:00 +9°C° 0 mm 3 mps 734 mmHg 85%
01:00 +9°C° 0 mm 3 mps 734 mmHg 86%
02:00 +9°C° 0 mm 3 mps 734 mmHg 87%
03:00 +9°C° 0 mm 3 mps 733 mmHg 89%
04:00 +9°C° 0 mm 3 mps 733 mmHg 88%
05:00 +9°C° 0 mm 3 mps 733 mmHg 86%
06:00 +9°C° 0 mm 3 mps 733 mmHg 85%
07:00 +11°C° 0 mm 3 mps 733 mmHg 78%
08:00 +14°C° 0 mm 3 mps 733 mmHg 71%
09:00 +17°C° 0 mm 3 mps 734 mmHg 64%
10:00 +17°C° 0 mm 4 mps 734 mmHg 68%
11:00 +17°C° 0 mm 4 mps 734 mmHg 72%
12:00 +16°C° 0 mm 5 mps 734 mmHg 76%
13:00 +16°C° 0 mm 5 mps 734 mmHg 79%
14:00 +16°C° 0 mm 5 mps 734 mmHg 82%
15:00 +16°C° 0 mm 5 mps 734 mmHg 86%
16:00 +16°C° 0 mm 5 mps 734 mmHg 85%
17:00 +16°C° 0 mm 5 mps 734 mmHg 84%
18:00 +16°C° 0 mm 6 mps 733 mmHg 83%
19:00 +15°C° 0 mm 5 mps 734 mmHg 87%
20:00 +15°C° 0 mm 5 mps 734 mmHg 90%
21:00 +14°C° 0 mm 5 mps 734 mmHg 94%
22:00 +14°C° 0.2 mm 5 mps 734 mmHg 95%
23:00 +14°C° 0.2 mm 5 mps 734 mmHg 96%

26 Octubre, Lunes

Tiempo Temperatura Precipitaciones Viento Presión Humedad
00:00 +14°C° 0.2 mm 5 mps 734 mmHg 97%
01:00 +14°C° 0 mm 5 mps 734 mmHg 97%
02:00 +14°C° 0 mm 5 mps 733 mmHg 97%
03:00 +14°C° 0 mm 5 mps 733 mmHg 97%
04:00 +14°C° 0.3 mm 5 mps 733 mmHg 97%
05:00 +14°C° 0.3 mm 5 mps 733 mmHg 97%
06:00 +14°C° 0.3 mm 5 mps 733 mmHg 97%
07:00 +14°C° 0.9 mm 6 mps 733 mmHg 97%
08:00 +14°C° 0.9 mm 6 mps 733 mmHg 97%
09:00 +14°C° 0.9 mm 6 mps 733 mmHg 97%
10:00 +14°C° 0.7 mm 6 mps 733 mmHg 97%
11:00 +14°C° 0.7 mm 7 mps 733 mmHg 97%
12:00 +14°C° 0.7 mm 7 mps 733 mmHg 96%
13:00 +14°C° 0.8 mm 7 mps 733 mmHg 96%
14:00 +14°C° 0.8 mm 6 mps 733 mmHg 96%
15:00 +14°C° 0.8 mm 6 mps 733 mmHg 96%
16:00 +14°C° 0.5 mm 5 mps 733 mmHg 97%
17:00 +14°C° 0.5 mm 4 mps 733 mmHg 98%
18:00 +14°C° 0.5 mm 4 mps 733 mmHg 99%
19:00 +14°C° 0.5 mm 3 mps 733 mmHg 99%
20:00 +14°C° 0.5 mm 3 mps 733 mmHg 99%
21:00 +13°C° 0.5 mm 3 mps 734 mmHg 99%
22:00 +14°C° 0.3 mm 2 mps 734 mmHg 99%
23:00 +14°C° 0.3 mm 2 mps 734 mmHg 99%

27 Octubre, Martes

Tiempo Temperatura Precipitaciones Viento Presión Humedad
00:00 +14°C° 0.3 mm 2 mps 734 mmHg 99%
01:00 +14°C° 0.7 mm 2 mps 733 mmHg 99%
02:00 +12°C° 0.7 mm 3 mps 733 mmHg 98%
03:00 +11°C° 0.7 mm 4 mps 733 mmHg 98%
04:00 +11°C° 0.3 mm 3 mps 733 mmHg 98%
05:00 +12°C° 0.3 mm 2 mps 733 mmHg 98%
06:00 +12°C° 0.3 mm 2 mps 734 mmHg 98%
07:00 +12°C° 0.1 mm 2 mps 734 mmHg 97%
08:00 +12°C° 0.1 mm 1 mps 734 mmHg 97%
09:00 +12°C° 0.1 mm 1 mps 735 mmHg 96%
10:00 +13°C° 0.1 mm 1 mps 735 mmHg 96%
11:00 +13°C° 0.1 mm 2 mps 735 mmHg 95%
12:00 +13°C° 0.1 mm 2 mps 735 mmHg 95%
13:00 +13°C° 0 mm 2 mps 735 mmHg 93%
14:00 +13°C° 0 mm 2 mps 735 mmHg 91%
15:00 +14°C° 0 mm 2 mps 735 mmHg 89%
16:00 +13°C° 0 mm 2 mps 735 mmHg 87%
17:00 +12°C° 0 mm 3 mps 736 mmHg 86%
18:00 +12°C° 0 mm 3 mps 736 mmHg 85%
19:00 +12°C° 0 mm 3 mps 736 mmHg 87%
20:00 +11°C° 0 mm 3 mps 737 mmHg 89%
21:00 +10°C° 0 mm 3 mps 737 mmHg 91%
22:00 +10°C° 0 mm 3 mps 738 mmHg 92%
23:00 +9°C° 0 mm 3 mps 738 mmHg 93%
Mostrar más

Necesitamos Su Consentimiento

Meteoprog y nuestros Proveedores de Servicios pueden almacenar y acceder a sus datos personales como cookies, identificadores de dispositivo u otras tecnologías similares de su dispositivo y procesar dichos datos para personalizar contenido y anuncios, además de ofrecer funciones de redes sociales y analizar el tráfico.

  • Almacenar y/o acceder a información en su dispositivo

    Se puede almacenar o acceder a cookies, identificadores de dispositivo u otra información de su dispositivo para los fines anteriormente indicados.

  • Anuncios y contenido personalizados, medición de anuncios y contenido, percepciones del público, y desarrollo de productos

    Los anuncios y el contenido pueden personalizarse en base a su perfil. Se pueden añadir más datos para personalizar mejor los anuncios y contenidos. Se puede medir el rendimiento de los anuncios y contenidos. Se puede obtener la percepción sobre el público que ha visto los anuncios y contenidos. Dichos datos pueden usarse para desarrollar o mejorar la experiencia del usuario, sistemas y software.

Al hacer clic en ‘Estoy De Acuerdo’ usted permitirá el uso de las cookies, identificadores de dispositivo, balizas web u otras tecnologías similares indicadas. Su configuración puede cambiarse desde el navegador de su dispositivo.

Para ciertos fines, los intereses legítimos pueden ser considerados por encima del consentimiento. Puede leer más sobre ello en nuestra Política de Privacidad y Cookies.